AA0RD-13 Weather Reports


time (UTC)temp
F
wind
direction
speed
knots
gust
knots
rain 1hr
in
rain 24hr
in
rain mn
in
humidity
%
barometer
mb
20260505140348 52 265 7.8 8.7 0.00 0.00 0.00 96 1014.7
20260505124850 52 246 7.8 12.2 0.00 0.00 0.00 96 1013.9
20260505124321 52 247 9.6 12.2 0.00 0.00 0.00 96 1014.0
20260505123833 52 255 10.4 12.2 0.00 0.00 0.00 96 1014.0
20260505123324 52 263 10.4 13.0 0.00 0.00 0.00 96 1013.9
20260505122817 52 261 9.6 13.0 0.00 0.00 0.00 96 1014.0
20260505122329 52 253 9.6 13.0 0.00 0.00 0.00 96 1014.0
20260505121821 52 248 9.6 12.2 0.00 0.00 0.00 96 1013.9
20260505121317 52 243 9.6 13.9 0.00 0.00 0.00 96 1013.8
20260505120829 52 245 9.6 13.9 0.00 0.00 0.00 96 1013.8
20260505120320 52 250 9.6 13.0 0.00 0.00 0.00 96 1013.8
20260505115832 52 247 9.6 13.0 0.00 0.00 0.00 96 1013.8
20260505115323 52 259 10.4 13.0 0.00 0.00 0.00 96 1013.7
20260505114814 52 225 7.8 10.4 0.00 0.00 0.00 97 1013.7
20260505114325 52 210 6.1 8.7 0.00 0.00 0.00 97 1013.7
20260505113815 52 229 6.1 9.6 0.00 0.00 0.00 97 1013.5
20260505113326 51 230 7.0 9.6 0.00 0.00 0.00 97 1013.5
20260505112822 51 225 6.1 8.7 0.00 0.00 0.00 97 1013.5
20260505112313 51 213 4.3 7.8 0.00 0.00 0.00 97 1013.4
20260505111825 51 207 5.2 10.4 0.00 0.00 0.00 96 1013.2
20260505111337 51 212 7.8 13.0 0.00 0.00 0.00 97 1013.2
20260505110829 51 223 9.6 13.0 0.00 0.00 0.00 97 1013.1
20260505110319 51 222 9.6 13.9 0.00 0.00 0.00 97 1013.1
20260505101828 51 237 13.0 19.1 0.00 0.00 0.00 97 1012.7
20260505101339 51 232 13.9 19.1 0.00 0.00 0.00 97 1012.6
20260505100830 51 238 14.8 20.0 0.00 0.00 0.00 97 1012.6
20260505100322 51 240 14.8 20.0 0.00 0.00 0.00 97 1012.5
20260505095817 51 237 13.9 18.2 0.00 0.00 0.00 97 1012.6
20260505095349 51 232 14.8 18.2 0.00 0.00 0.00 97 1012.6
20260505094819 51 233 14.8 20.0 0.00 0.00 0.00 97 1012.6
20260505094332 51 232 14.8 18.2 0.00 0.00 0.00 97 1012.6
20260505093843 51 240 13.0 18.2 0.00 0.00 0.00 97 1012.6
20260505093332 51 238 13.9 20.0 0.00 0.00 0.00 97 1012.5
20260505092823 51 236 14.8 20.0 0.00 0.00 0.00 97 1012.6
20260505092315 51 240 14.8 20.0 0.00 0.00 0.00 97 1012.4
20260505091826 51 225 14.8 20.0 0.00 0.00 0.00 97 1012.4
20260505091318 51 240 14.8 20.0 0.00 0.00 0.00 97 1012.4
20260505090850 51 232 16.5 20.0 0.00 0.00 0.00 97 1012.4
20260505090324 51 248 14.8 18.2 0.00 0.00 0.00 97 1012.3
20260505085818 51 238 13.9 20.0 0.00 0.00 0.00 97 1012.3
20260505085329 51 228 16.5 20.0 0.00 0.00 0.00 98 1012.3
20260505084821 51 253 13.9 20.0 0.00 0.00 0.00 97 1012.3
20260505084333 51 240 14.8 21.7 0.00 0.00 0.00 97 1012.3
20260505083824 51 235 13.9 21.7 0.00 0.00 0.00 97 1012.3
20260505083316 51 234 14.8 20.0 0.00 0.00 0.00 98 1012.3
20260505082827 51 236 15.6 20.0 0.00 0.00 0.00 98 1012.1
20260505082323 51 238 15.6 20.0 0.00 0.00 0.00 97 1012.1
20260505081815 51 242 17.4 20.0 0.00 0.00 0.00 98 1012.0
20260505081327 51 243 16.5 19.1 0.00 0.00 0.00 98 1012.1
20260505080818 51 239 15.6 18.2 0.00 0.00 0.00 98 1012.1
20260505080328 51 234 15.6 18.2 0.00 0.00 0.00 98 1011.9
20260505075840 51 238 14.8 18.2 0.00 0.00 0.00 98 1012.0
20260505075330 51 223 13.9 18.2 0.00 0.00 0.00 98 1011.8
20260505074822 51 238 14.8 19.1 0.00 0.00 0.00 98 1011.8
20260505074354 51 229 14.8 19.1 0.00 0.00 0.00 97 1011.8
20260505073824 51 227 15.6 20.9 0.00 0.00 0.00 97 1011.6
20260505073318 51 237 15.6 20.9 0.00 0.00 0.00 98 1011.6
20260505072849 51 240 15.6 20.0 0.00 0.00 0.00 97 1011.5
20260505072320 51 238 13.9 20.9 0.00 0.00 0.00 97 1011.6
20260505071832 51 230 16.5 20.9 0.00 0.00 0.00 98 1011.5
20260505071322 51 238 16.5 21.7 0.00 0.00 0.00 98 1011.5
20260505070814 51 232 17.4 21.7 0.00 0.00 0.00 98 1011.3
20260505070325 51 228 17.4 21.7 0.00 0.00 0.00 98 1011.3
20260505065817 51 233 17.4 21.7 0.00 0.00 0.00 98 1011.4
20260505065349 51 252 17.4 20.9 0.00 0.00 0.00 98 1011.3
20260505064820 51 250 17.4 22.6 0.00 0.00 0.00 97 1011.3
20260505064316 51 239 17.4 21.7 0.00 0.00 0.00 97 1011.3
20260505063848 51 241 19.1 21.7 0.00 0.00 0.00 97 1011.3
20260505063320 51 232 17.4 20.9 0.00 0.00 0.00 97 1011.1
20260505062832 51 225 16.5 21.7 0.00 0.00 0.00 97 1011.2
20260505062322 51 225 17.4 21.7 0.00 0.00 0.00 97 1011.1
20260505061814 51 222 16.5 24.3 0.00 0.00 0.00 97 1011.0
20260505061346 51 223 18.2 21.7 0.00 0.00 0.00 97 1010.9
20260505060816 51 232 17.4 22.6 0.00 0.00 0.00 97 1010.8
20260505060330 51 227 16.5 21.7 0.00 0.00 0.00 97 1010.8
20260505055821 51 226 18.2 23.5 0.00 0.00 0.00 97 1010.6
20260505055337 51 225 18.2 23.5 0.00 0.00 0.00 97 1010.6
20260505054827 51 218 20.9 24.3 0.00 0.00 0.00 97 1010.5
20260505054317 51 220 18.2 23.5 0.00 0.00 0.00 97 1010.6
20260505053829 51 244 19.1 24.3 0.00 0.00 0.00 97 1010.5
20260505053341 51 235 20.9 26.1 0.00 0.00 0.00 97 1010.4
20260505052831 51 227 20.0 26.1 0.00 0.00 0.00 97 1010.3
20260505052323 51 238 20.0 26.1 0.00 0.00 0.00 96 1010.3
20260505051814 51 244 21.7 27.8 0.00 0.00 0.00 96 1010.2
20260505051324 52 236 22.6 27.8 0.00 0.00 0.00 96 1010.1
20260505050835 52 252 20.9 27.8 0.00 0.00 0.00 96 1010.0
20260505050326 52 244 20.9 27.8 0.00 0.00 0.00 96 1009.9
20260505041331 52 252 22.6 28.7 0.00 0.00 0.00 95 1009.5
20260505040822 52 237 20.9 26.9 0.00 0.00 0.00 94 1009.6
20260505040314 52 242 20.9 26.9 0.00 0.00 0.00 94 1009.6
20260505035826 52 255 21.7 27.8 0.00 0.00 0.00 94 1009.5
20260505035319 52 233 23.5 28.7 0.00 0.00 0.00 94 1009.6
20260505034830 52 240 21.7 29.5 0.00 0.00 0.00 94 1009.5
20260505034322 53 242 23.5 29.5 0.00 0.00 0.00 94 1009.5
20260505033853 53 238 22.6 27.8 0.00 0.00 0.00 93 1009.5
20260505033324 53 254 22.6 28.7 0.00 0.00 0.00 93 1009.5
20260505032819 53 248 23.5 28.7 0.00 0.00 0.00 92 1009.5
20260505032330 53 252 23.5 28.7 0.00 0.00 0.00 92 1009.4
20260505031822 53 252 21.7 27.8 0.00 0.00 0.00 91 1009.2
20260505031333 53 248 21.7 27.8 0.00 0.00 0.00 91 1009.1
20260505030845 54 243 22.6 28.7 0.00 0.00 0.00 91 1009.1
20260505030337 54 239 23.5 28.7 0.00 0.00 0.00 91 1009.1
20260505025847 54 249 23.5 28.7 0.00 0.00 0.00 91 1009.1
20260505025319 54 249 22.6 27.8 0.00 0.00 0.00 90 1009.0
20260505024850 54 239 22.6 27.8 0.00 0.00 0.00 89 1009.0
20260505024321 54 252 23.5 27.8 0.00 0.00 0.00 89 1008.9
20260505023831 54 240 22.6 28.7 0.00 0.00 0.00 89 1009.0
20260505023321 54 254 23.5 28.7 0.00 0.00 0.00 89 1009.1
20260505022818 54 255 21.7 26.1 0.00 0.00 0.00 89 1009.1
20260505022329 55 236 21.7 25.2 0.00 0.00 0.00 89 1009.1
20260505021820 55 244 20.0 23.5 0.00 0.00 0.00 89 1009.2
20260505021332 55 248 19.1 24.3 0.00 0.00 0.00 89 1009.2
20260505020823 55 242 18.2 24.3 0.00 0.00 0.00 88 1009.4
20260505020314 55 237 19.1 22.6 0.00 0.00 0.00 88 1009.4
20260505015826 55 239 18.2 21.7 0.00 0.00 0.00 88 1009.5
20260505015318 55 235 17.4 22.6 0.00 0.00 0.00 88 1009.5
20260505014828 55 230 18.2 22.6 0.00 0.00 0.00 88 1009.5
20260505014323 55 234 17.4 22.6 0.00 0.00 0.00 87 1009.5
20260505013815 55 238 19.1 23.5 0.00 0.00 0.00 87 1009.5
20260505013328 56 227 18.2 22.6 0.00 0.00 0.00 87 1009.8
20260505012820 56 226 18.2 22.6 0.00 0.00 0.00 86 1009.7
20260505012351 56 229 16.5 22.6 0.00 0.00 0.00 86 1009.9
20260505011822 57 221 17.4 21.7 0.00 0.00 0.00 85 1009.7
20260505011333 57 230 16.5 20.9 0.00 0.00 0.00 85 1009.9
20260505010825 57 233 16.5 20.0 0.00 0.00 0.00 85 1009.9
20260505010317 57 246 14.8 20.9 0.00 0.00 0.00 85 1009.9
20260505005832 57 239 16.5 20.9 0.00 0.00 0.00 85 1010.0
20260505005324 57 223 16.5 20.9 0.00 0.00 0.00 85 1009.9
20260505004814 57 221 17.4 20.0 0.00 0.00 0.00 85 1009.9
20260505004327 57 237 15.6 20.0 0.00 0.00 0.00 86 1009.9
20260505003818 56 241 16.5 20.0 0.00 0.00 0.00 86 1009.9
20260505003350 57 228 15.6 20.0 0.00 0.00 0.00 86 1009.8
20260505002818 57 236 16.5 20.0 0.00 0.00 0.00 85 1009.9
20260505002330 57 238 15.6 19.1 0.00 0.00 0.00 86 1009.7
20260505001842 56 236 15.6 19.1 0.00 0.00 0.00 87 1009.8
20260505001332 56 247 14.8 19.1 0.00 0.00 0.00 87 1009.8
20260505000843 56 242 14.8 19.1 0.00 0.00 0.00 87 1009.7
20260505000318 56 239 13.9 17.4 0.00 0.00 0.00 87 1009.7
20260504235830 56 261 13.9 17.4 0.00 0.00 0.00 87 1009.7
20260504235322 56 246 13.9 16.5 0.00 0.00 0.00 87 1009.8
20260504234832 56 252 13.0 16.5 0.00 0.00 0.00 87 1009.9
20260504234325 57 246 11.3 14.8 0.00 0.00 0.00 87 1009.9
20260504233816 57 254 11.3 15.6 0.00 0.00 0.00 87 1009.9
20260504233328 57 246 11.3 16.5 0.00 0.00 0.00 87 1009.9
20260504232819 57 246 13.0 16.5 0.00 0.00 0.00 87 1009.9
20260504232315 57 238 13.0 17.4 0.00 0.00 0.00 87 1009.9
20260504231827 57 245 14.8 17.4 0.00 0.00 0.00 87 1009.9
20260504231339 57 246 13.9 17.4 0.00 0.00 0.00 88 1009.9
20260504230850 57 238 13.9 16.5 0.00 0.00 0.00 88 1009.8
20260504230320 57 246 12.2 14.8 0.00 0.00 0.00 88 1010.0
20260504225853 56 232 13.0 14.8 0.00 0.00 0.00 88 1010.0
20260504225323 57 241 12.2 14.8 0.00 0.00 0.00 88 1010.3
20260504224815 56 246 13.0 16.5 0.00 0.00 0.00 88 1010.2
20260504224327 57 240 12.2 16.5 0.00 0.00 0.00 87 1010.4
20260504223818 57 234 12.2 14.8 0.00 0.00 0.00 87 1010.4
20260504223329 57 254 12.2 14.8 0.00 0.00 0.00 87 1010.4
20260504222825 57 231 10.4 12.2 0.00 0.00 0.00 87 1010.5
20260504222316 57 242 9.6 13.0 0.00 0.00 0.00 88 1010.4
20260504221850 57 239 10.4 13.0 0.00 0.00 0.00 88 1010.5
20260504221320 57 240 9.6 12.2 0.00 0.00 0.00 89 1010.6
20260504220832 56 231 10.4 13.9 0.00 0.00 0.00 88 1010.5
20260504220324 56 236 11.3 14.8 0.00 0.00 0.00 88 1010.6
20260504215815 57 240 12.2 15.6 0.00 0.00 0.00 88 1010.5
20260504215328 56 254 13.9 15.6 0.00 0.00 0.00 89 1010.6
20260504214818 56 235 12.2 13.9 0.00 0.00 0.00 87 1010.6
20260504214350 57 252 10.4 13.0 0.00 0.00 0.00 87 1010.6
20260504213845 57 238 10.4 13.9 0.00 0.00 0.00 88 1010.6
20260504213315 56 248 11.3 13.9 0.00 0.00 0.00 89 1010.7
20260504212826 56 247 10.4 13.9 0.00 0.00 0.00 89 1010.7
20260504212337 56 237 9.6 12.2 0.00 0.00 0.00 89 1010.8
20260504211827 56 253 9.6 11.3 0.00 0.00 0.00 90 1010.9
20260504211318 56 238 8.7 10.4 0.00 0.00 0.00 89 1010.8
20260504210830 56 247 8.7 10.4 0.00 0.00 0.00 90 1010.8
20260504210322 55 244 9.6 10.4 0.00 0.00 0.00 90 1010.7
20260504205833 55 257 8.7 10.4 0.00 0.00 0.00 90 1010.8
20260504205323 55 255 9.6 10.4 0.00 0.00 0.00 90 1010.8
20260504204817 55 263 7.8 11.3 0.00 0.00 0.00 90 1010.8
20260504204329 55 255 9.6 11.3 0.00 0.00 0.00 88 1010.8
20260504203819 56 233 9.6 11.3 0.00 0.00 0.00 87 1010.8
20260504203331 56 246 9.6 12.2 0.00 0.00 0.00 86 1010.9
20260504202822 57 248 9.6 12.2 0.00 0.00 0.00 86 1010.9
20260504202333 57 242 10.4 12.2 0.00 0.00 0.00 86 1010.8
20260504201826 56 246 9.6 12.2 0.00 0.00 0.00 85 1010.8
20260504201317 56 252 10.4 12.2 0.00 0.00 0.00 86 1010.8
20260504200830 56 234 7.8 11.3 0.00 0.00 0.00 86 1010.7
20260504200326 56 254 7.8 9.6 0.00 0.00 0.00 86 1010.9
20260504195817 56 267 7.8 9.6 0.00 0.00 0.00 85 1010.9
20260504195348 57 249 6.1 7.8 0.00 0.00 0.00 85 1011.0
20260504194818 57 246 5.2 7.8 0.00 0.00 0.00 84 1010.8
20260504194330 57 269 6.1 7.8 0.00 0.00 0.00 83 1010.8
20260504193841 57 264 6.1 7.8 0.00 0.00 0.00 82 1010.9
20260504193333 57 269 7.0 9.6 0.00 0.00 0.00 81 1010.8
20260504192824 58 267 7.8 10.4 0.00 0.00 0.00 80 1010.8
20260504192317 60 271 7.8 9.6 0.00 0.00 0.00 75 1010.8
20260504191828 60 28 2.6 3.5 0.00 0.00 0.00 74 1010.8
20260504191322 60 28 2.6 3.5 0.00 0.00 0.00 74 1010.9
20260504190833 61 28 2.6 3.5 0.00 0.00 0.00 72 1010.8
20260504190325 62 24 2.6 3.5 0.00 0.00 0.00 71 1010.7
20260504185817 63 22 2.6 3.5 0.00 0.00 0.00 69 1010.7
20260504185329 64 22 1.7 2.6 0.00 0.00 0.00 67 1010.7
20260504184820 65 11 1.7 2.6 0.00 0.00 0.00 66 1010.6
20260504184332 65 285 0.9 2.6 0.00 0.00 0.00 67 1010.5
20260504183844 64 285 0.9 2.6 0.00 0.00 0.00 69 1010.6
20260504183314 64 285 1.7 3.5 0.00 0.00 0.00 68 1010.6
20260504182829 64 134 0.0 0.0 0.00 0.00 0.00 68 1010.6
20260504182320 64 134 0.0 0.0 0.00 0.00 0.00 69 1010.7
20260504181831 63 134 0.0 0.0 0.00 0.00 0.00 70 1010.8
20260504181323 62 134 0.0 0.0 0.00 0.00 0.00 70 1010.8
20260504180835 62 134 0.0 1.7 0.00 0.00 0.00 71 1010.8
20260504180326 62 134 0.0 2.6 0.00 0.00 0.00 73 1010.8
20260504175817 62 134 0.9 2.6 0.00 0.00 0.00 74 1010.9
20260504175329 62 134 0.0 0.0 0.00 0.00 0.00 73 1010.9
20260504174820 62 134 0.0 0.0 0.00 0.00 0.00 76 1010.8
20260504174336 61 134 0.0 0.0 0.00 0.00 0.00 76 1010.8
20260504173826 61 134 0.0 0.0 0.00 0.00 0.00 78 1010.8
20260504173319 60 134 0.0 0.0 0.00 0.00 0.00 80 1010.9
20260504172830 60 134 0.0 0.0 0.00 0.00 0.00 82 1010.9
20260504172322 59 134 0.0 1.7 0.00 0.00 0.00 83 1010.9
20260504171832 58 134 0.0 3.5 0.00 0.00 0.00 84 1010.9
20260504171324 57 134 1.7 4.3 0.00 0.00 0.00 84 1010.9
20260504170815 57 127 3.5 4.3 0.00 0.00 0.00 83 1010.9
20260504170328 57 133 3.5 4.3 0.00 0.00 0.00 83 1010.9
20260504160328 54 5 2.6 4.3 0.00 0.00 0.00 83 1010.8
20260504150833 63 294 3.5 4.3 0.00 0.00 0.00 64 1010.3
20260504150325 63 283 2.6 4.3 0.00 0.00 0.00 64 1010.3